User: anonymous   Login
Location: Unspecified
(0.0000°N, 0.0000°E)
Time: 23:20:10
(UTC+00:00)
Language:

PROBA 2 - Orbit

View from above orbital plane
View from above orbital plane
View from above satellite
View from above satellite

Ground track
Ground track

The orbit data is extracted from the following two-line orbital elements,

1 36037U 09059B   15115.52258118  .00000321  00000-0  88911-4 0  9994
2 36037 098.2776 309.2967 0012351 224.7874 188.2127 14.52827612290347
Epoch (UTC): 25 April 2015 12:32:31
Eccentricity: 0.0012351
inclination: 98.2776°
perigee height: 707 km
apogee height: 725 km
right ascension of ascending node: 309.2967°
argument of perigee: 224.7874°
revolutions per day: 14.52827612
mean anomaly at epoch: 188.2127°
orbit number at epoch: 29034

The dashed part of the orbit path shows where the satellite is in the earth's shadow,  

DLR